Coleman, TX

3:09 AM CST on December 06, 2016 (GMT -0600)
Coleman Municipal

Weather History for KCOM - April, 2013

Change the Weather History Date:

Saturday, April 27, 2013

  Actual Average (KABI) Record (KABI)
Temperature  
Mean Temperature 68 °F 68 °F  
Max Temperature 81 °F 80 °F 96 °F (2012)
Min Temperature 57 °F 55 °F 36 °F (1920)
Degree Days  
Heating Degree Days 0 2  
Month to date heating degree days 107  
Since 1 July heating degree days 2538  
Cooling Degree Days 4 5  
Month to date cooling degree days 83  
Year to date cooling degree days 117  
Growing Degree Days 18 (Base 50)    
Moisture  
Dew Point 49 °F    
Average Humidity 53    
Maximum Humidity 83    
Minimum Humidity 22    
Precipitation  
Precipitation 0.00 in 0.07 in 1.99 in (1900)
Month to date precipitation 1.42  
Year to date precipitation 5.54  
Sea Level Pressure  
Sea Level Pressure 30.08 in    
Wind  
Wind Speed 7 mph (NE)    
Max Wind Speed 14 mph    
Max Gust Speed 17 mph    
Visibility 10 miles    
Events      
T = Trace of Precipitation, MM = Missing Value Source: NWS Daily Summary

Daily Weather History Graph

Daily Weather History Graph

Search for Another Location

Airport or City:

Trip Planner

Search our weather history database for the weather conditions in past years. The results will help you decide how hot, cold, wet, or windy it might be!

Date:

Astronomy

Apr. 27, 2013 Rise Set
Actual Time 6:55 AM CDT 8:15 PM CDT
Civil Twilight 6:29 AM CDT 8:41 PM CDT
Nautical Twilight 5:59 AM CDT 9:11 PM CDT
Astronomical Twilight 5:27 AM CDT 9:43 PM CDT
Moon 10:39 PM CDT (4/27) 8:21 AM CDT (4/27)
Length of Visible Light 14h 11m
Length of Day
13h 19m
Waning Gibbous, 95% of the Moon is Illuminated
Apr 27
Waning Gibbous
May 2
Last Quarter
May 9
New
May 17
First Quarter
May 24
Full

Hourly Weather History & Observations

Time (CDT) Temp. Dew Point Humidity Pressure Visibility Wind Dir Wind Speed Gust Speed Precip Events Conditions
12:15 AM 67.8 °F 59.9 °F 76% 30.05 in 10.0 mi SSW 8.1 mph - N/A   Clear
12:35 AM 67.3 °F 59.7 °F 77% 30.05 in 10.0 mi SSW 9.2 mph - N/A   Clear
12:55 AM 66.7 °F 59.5 °F 78% 30.06 in 10.0 mi SSW 10.4 mph - N/A   Clear
1:15 AM 66.2 °F 59.5 °F 79% 30.06 in 10.0 mi WSW 4.6 mph - N/A   Clear
1:35 AM 66.7 °F 59.7 °F 78% 30.09 in 10.0 mi NW 4.6 mph - N/A   Mostly Cloudy
1:55 AM 67.1 °F 59.5 °F 77% 30.08 in 10.0 mi NW 4.6 mph - N/A   Overcast
2:15 AM 67.3 °F 59.4 °F 76% 30.08 in 10.0 mi NW 4.6 mph - N/A   Overcast
2:35 AM 67.3 °F 59.4 °F 76% 30.08 in 10.0 mi WNW 4.6 mph - N/A   Overcast
2:55 AM 67.3 °F 59.4 °F 76% 30.08 in 10.0 mi Calm Calm - N/A   Overcast
3:15 AM 67.1 °F 59.0 °F 75% 30.08 in 10.0 mi Calm Calm - N/A   Overcast
3:35 AM 66.4 °F 58.8 °F 77% 30.08 in 10.0 mi Calm Calm - N/A   Mostly Cloudy
3:55 AM 64.4 °F 58.1 °F 80% 30.07 in 10.0 mi SSW 5.8 mph - N/A   Scattered Clouds
4:15 AM 63.9 °F 57.7 °F 80% 30.06 in 10.0 mi SSW 5.8 mph - N/A   Clear
4:35 AM 63.9 °F 57.7 °F 80% 30.06 in 10.0 mi SSW 5.8 mph - N/A   Clear
4:55 AM 64.0 °F 57.4 °F 79% 30.07 in 10.0 mi NW 4.6 mph - N/A   Clear
5:15 AM 62.1 °F 56.8 °F 83% 30.08 in 10.0 mi WNW 4.6 mph - N/A   Clear
6:35 AM 59.5 °F 50.9 °F 73% 30.09 in 10.0 mi NNW 6.9 mph - N/A   Clear
6:55 AM 57.2 °F 50.2 °F 77% 30.10 in 10.0 mi North 5.8 mph - N/A   Clear
7:15 AM 57.9 °F 50.5 °F 76% 30.11 in 10.0 mi North 10.4 mph - N/A   Clear
7:35 AM 58.1 °F 51.3 °F 78% 30.11 in 10.0 mi North 8.1 mph - N/A   Clear
7:55 AM 59.2 °F 51.6 °F 76% 30.12 in 10.0 mi North 11.5 mph - N/A   Clear
8:15 AM 59.9 °F 52.0 °F 75% 30.13 in 10.0 mi North 10.4 mph - N/A   Clear
8:35 AM 61.3 °F 52.7 °F 73% 30.14 in 10.0 mi North 10.4 mph - N/A   Clear
8:55 AM 62.1 °F 52.9 °F 72% 30.14 in 10.0 mi North 8.1 mph - N/A   Clear
9:15 AM 63.5 °F 52.9 °F 68% 30.15 in 10.0 mi North 11.5 mph 17.3 mph N/A   Clear
9:35 AM 64.6 °F 52.7 °F 65% 30.15 in 10.0 mi North 10.4 mph - N/A   Clear
9:55 AM 65.7 °F 52.7 °F 63% 30.15 in 10.0 mi NNE 10.4 mph - N/A   Clear
10:15 AM 66.7 °F 52.5 °F 60% 30.15 in 10.0 mi NNE 11.5 mph - N/A   Clear
10:35 AM 68.2 °F 52.7 °F 58% 30.15 in 10.0 mi North 10.4 mph - N/A   Clear
10:55 AM 69.4 °F 52.2 °F 54% 30.15 in 10.0 mi NNE 8.1 mph - N/A   Clear
11:15 AM 70.7 °F 51.8 °F 51% 30.15 in 10.0 mi North 11.5 mph 17.3 mph N/A   Clear
11:35 AM 72.3 °F 51.3 °F 47% 30.15 in 10.0 mi NNE 12.7 mph - N/A   Clear
11:55 AM 72.9 °F 51.3 °F 47% 30.15 in 10.0 mi NNE 9.2 mph - N/A   Clear
12:15 PM 73.9 °F 50.7 °F 44% 30.15 in 10.0 mi North 6.9 mph - N/A   Clear
12:35 PM 74.7 °F 50.4 °F 42% 30.13 in 10.0 mi NNE 10.4 mph - N/A   Clear
12:55 PM 76.3 °F 48.9 °F 38% 30.12 in 10.0 mi NE 11.5 mph 16.1 mph N/A   Clear
1:15 PM 77.9 °F 50.2 °F 38% 30.11 in 10.0 mi NE 10.4 mph 17.3 mph N/A   Clear
1:35 PM 78.3 °F 47.1 °F 33% 30.11 in 10.0 mi ENE 12.7 mph - N/A   Clear
1:55 PM 79.3 °F 46.6 °F 31% 30.09 in 10.0 mi NNE 13.8 mph 17.3 mph N/A   Clear
2:15 PM 79.7 °F 46.4 °F 31% 30.09 in 10.0 mi NE 10.4 mph 17.3 mph N/A   Clear
2:35 PM 78.1 °F 45.5 °F 32% 30.10 in 10.0 mi ENE 10.4 mph 17.3 mph N/A   Clear
2:55 PM 78.8 °F 45.0 °F 30% 30.10 in 10.0 mi NNE 4.6 mph - N/A   Clear
3:15 PM 80.8 °F 46.2 °F 30% 30.09 in 10.0 mi ESE 5.8 mph - N/A   Clear
3:35 PM 80.6 °F 43.5 °F 27% 30.08 in 10.0 mi East 4.6 mph - N/A   Clear
3:55 PM 80.1 °F 45.0 °F 29% 30.06 in 10.0 mi ENE 5.8 mph 16.1 mph N/A   Clear
4:15 PM 80.6 °F 42.8 °F 26% 30.05 in 10.0 mi NE 13.8 mph 17.3 mph N/A   Clear
4:35 PM 79.5 °F 39.2 °F 24% 30.05 in 10.0 mi ENE 9.2 mph 16.1 mph N/A   Clear
4:55 PM 80.6 °F 41.0 °F 24% 30.03 in 10.0 mi NE 11.5 mph - N/A   Clear
5:15 PM 80.1 °F 41.7 °F 26% 30.03 in 10.0 mi ENE 12.7 mph - N/A   Clear
5:35 PM 79.9 °F 41.0 °F 25% 30.01 in 10.0 mi ENE 12.7 mph - N/A   Clear
5:55 PM 79.5 °F 41.9 °F 26% 30.02 in 10.0 mi ENE 12.7 mph - N/A   Clear
6:15 PM 78.1 °F 37.4 °F 23% 30.01 in 10.0 mi East 10.4 mph - N/A   Clear
6:35 PM 79.2 °F 37.6 °F 22% 30.01 in 10.0 mi ENE 9.2 mph - N/A   Clear
6:55 PM 79.2 °F 37.6 °F 22% 30.01 in 10.0 mi ENE 11.5 mph - N/A   Clear
7:15 PM 78.3 °F 39.2 °F 25% 30.01 in 10.0 mi ENE 9.2 mph - N/A   Clear
7:35 PM 76.6 °F 40.3 °F 27% 30.01 in 10.0 mi East 8.1 mph - N/A   Clear
7:55 PM 74.3 °F 40.1 °F 29% 30.01 in 10.0 mi East 6.9 mph - N/A   Clear
8:15 PM 70.9 °F 40.6 °F 33% 30.02 in 10.0 mi ESE 5.8 mph - N/A   Clear
8:35 PM 68.5 °F 44.8 °F 42% 30.03 in 10.0 mi ESE 5.8 mph - N/A   Clear
8:55 PM 66.4 °F 46.0 °F 48% 30.03 in 10.0 mi ESE 5.8 mph - N/A   Clear
9:15 PM 65.7 °F 45.5 °F 48% 30.04 in 10.0 mi East 6.9 mph - N/A   Clear
9:35 PM 64.9 °F 45.0 °F 48% 30.04 in 10.0 mi ENE 3.5 mph - N/A   Clear
9:55 PM 64.4 °F 44.8 °F 49% 30.05 in 10.0 mi East 3.5 mph - N/A   Clear
10:15 PM 64.8 °F 44.8 °F 48% 30.05 in 10.0 mi Calm Calm - N/A   Clear
10:35 PM 64.6 °F 45.3 °F 50% 30.05 in 10.0 mi NE 3.5 mph - N/A   Clear
10:55 PM 63.0 °F 45.7 °F 53% 30.05 in 10.0 mi NNE 3.5 mph - N/A   Clear
11:15 PM 61.0 °F 46.0 °F 58% 30.06 in 10.0 mi NE 3.5 mph - N/A   Clear
11:35 PM 59.0 °F 45.3 °F 60% 30.06 in 10.0 mi Calm Calm - N/A   Clear
11:55 PM 59.5 °F 46.0 °F 61% 30.06 in 10.0 mi Calm Calm - N/A   Clear